Погода в Сеяхе

Погода в Сеяхе : погода сейчас, прогноз погоды и архив. Всё, что Вы хотите узнать о погоде в Сеяхе!

Хотите узнать прогноз погоды в Сеяхе? Тогда Вам сюда: Погода в Сеяхе

Поиск расширенной информации на нашем сайте:

Другие новости

Новости СМИ2

Главная страница сайта

Новости сайта

03.07.2017

Напоминаем, что на нашем специализированном сайте Метеоцентр.Азия вы можете получить высокодетализированные автоматические прогнозы погоды по пунктам России, СНГ и мира в авиационном формате (включающие направление и скорость ветра, видимость, явления погоды, количество и форму облачности, нижнюю и верхнюю границу облачности).

Рекомендуем: Оптовым покупателям женские халаты оптом от нашего лучшего отечественного Российского производителя

Погода в Сеяхе - сегодня

Время (UTC), дата Ветер
(°,м/с) 
Видим.   Явления Облачность Т
(°С)
Тd
(°С)
f(%) Тe
(°С)
Pmin
(гПа)
dP
(гПа)
Po
(мм)
O2
(г/м3)
Тmin Tmax R s Состояние
почвы
12 09.12.17 210 (ЮЗ) 20000 м    10/10 270 м 
[St]
-8.5 -9.8 90 -11  1016.7  0.8  761  317           
15 09.12.17 200 (Ю) 20000 м  дымка  10/10 120 м 
[St]
-11.5 -12.9 89 -13  1018  0.6  762  322    -8       
18 09.12.17 190 (Ю) 20000 м    10/10 120 м 
[St]
-12.7 -14.2 88 -15  1017.9  0.1  762  323           
21 09.12.17 190 (Ю) 20000 м    10/10 120 м 
[St]
-13.1 -14.6 88 -15  1017.5  -0.4  761  324           
00 10.12.17 170 (Ю) 20000 м    10/10 150 м 
[St]
-11.6 -13 89 -14  1017  -0.5  761  321           
03 10.12.17 190 (Ю) н/о    н/о 
[Ac cuf]
-10.6 -11.8 91 -12  1015.9  -1.1  760  320  -13.1         
06 10.12.17 290 (З) 4000 м  дымка  10/10 180 м 
[St]
-11 -12.3 90 -13  1015.5  -0.5  760  320           
09 10.12.17 290 (З) 20000 м  {снег}  8/0 средняя 
[Ac trans]
-15.8 -17.6 86 -20  1015.8  0.3  760  327           
12 10.12.17 310 (СЗ) 20000 м  {снег}  6/0 средняя, верхняя 
[Ac trans|Ci fib]
-19.3 -21.5 83 -26  1016.3  0.4  760  331           
15 10.12.17 280 (З) 20000 м    8/0 средняя, верхняя 
[Ac trans|Ci fib]
-23.1 -25.7 79 -29  1017  0.7  761  337    -10.3  0.2     
18 10.12.17 270 (З) 20000 м    ясно 
-24.5 -27.2 78 -31  1017.8  0.8  761  339           
21 10.12.17 280 (З) 20000 м    ясно 
-24.4 -27.1 78 -32  1019.1  1.2  762  339           
00 11.12.17 280 (З) 20000 м    ясно 
-23 -25.6 79 -31  1019.7  0.6  763  337           
03 11.12.17 290 (З) 20000 м    ясно 
-21.4 -23.7 82 -30  1020.7  764  336  -25.2      26  неравномерный
сухой снег
100% 
06 11.12.17 290 (З) 4000 м  дымка  ясно 270 м 
-21.4 -23.8 81 -28  1022  1.3  765  336           
09 11.12.17 290 (З) 4000 м  дымка  ясно 
-21.2 -23.6 81 -28  1023.3  1.3  766  336           
12 11.12.17 280 (З) 20000 м    ясно 
-22.2 -24.7 80 -29  1024.1  0.7  766  338           
15 11.12.17 310 (СЗ) 20000 м    10/10 1080 м 
[Sc]
-14.9 -16.6 87 -20  1024.1  0.1  766  328    -14.9       
18 11.12.17 310 (СЗ) 20000 м    10/10 500 м 
[Sc]
-12.5 -13.9 89 -16  1024.3  0.2  766  325           
21 11.12.17 340 (С) 20000 м    10/10 500 м 
[Sc]
-12.3 -13.8 89 -16  1024.4  0.1  766  325           
00 12.12.17 360 (С) 20000 м    10/10 600 м 
[Sc]
-13.5 -15.1 88 -17  1024.6  0.3  767  326           
03 12.12.17 030 (СВ) 20000 м    10/10 600 м 
[Sc]
-17 -18.9 85 -17  1024.9  0.2  767  331  -17      26  неравномерный
сухой снег
100% 
06 12.12.17 150 (ЮВ) 20000 м    3/3 270 м средняя, верхняя 
[Ac trans|Ci fib]
-22.5 -25 80 -25  1025.6  0.7  767  339  -22.6         
09 12.12.17 190 (Ю) 20000 м    4/0 средняя, верхняя 
[Ac trans|Ci fib]
-19.9 -22.1 83 -24  1025.9  0.3  768  335           
12 12.12.17 160 (Ю) 20000 м  в посл. час снег  10/10 240 м 
[St]
-16.8 -18.7 85 -21  1025.6  -0.3  767  331           
Время (UTC), дата Ветер
(°,м/с) 
Видим.   Явления Облачность Т
(°С)
Тd
(°С)
f(%) Тe
(°С)
Pmin
(гПа)
dP
(гПа)
Po
(мм)
O2
(г/м3)
Тmin Tmax R s Состояние
почвы

Для получения пояснительной информации подведите курсор к названию столбца.

ПОГОДА в Сеяхе - архив

Всё, что Вы хотите узнать о погоде в Сеяхе - удобно и подробно!

Выберите нужную дату (начиная с 1 января 2015* года) и нажмите кнопку "Найти".
Будут отображены архивные сводки погоды по пункту Сеяха, начиная с указанной даты.


Отображать данные в формате CSV (для использования в таблицах Excel)


Внимание! Наш архив погоды предназначен исключительно для личного некоммерческого использования в познавательных целях. Если Вам необходимы официальные справки о состоянии погоды (для производственных, юридических, коммерческих и т.п. целей), обращайтесь в органы Росгидромета.

*Примечание: данная дата относится к архиву по метеостанциям СССР (Россия, СНГ, Балтия).
Архив по метеостанциям Зарубежной Европы и Азии (кроме Китая) хранится 10 дней, по другим регионам земного шара (Китай, Африка, Америка, Австралия, Океания) - 1 день.

Сеяха - район местоположения метеостанции


Название, широта, долгота, высота метеостанции:
Сеяха 70.2°ш. 72.5°д. 16 м над ур. моря [Российская Федерация]

Дополнительная информация

В oтличие oт бoльшинства пoгoдных сайтoв мы публикуем пoдрoбную метеoинфoрмацию в детальнoм прoфессиoнальнoм фoрмате.

Характеристики температуры и влажнoсти вoздуха измеряются на высoте 2 м в тени вдали oт зданий и деревьев.
Скoрoсть ветра измеряется на высoте 10 м (на урoвне рoста челoвека скoрoсть ветра ниже в 1.5-2 раза). Если метеoстанция нахoдится в гoрoде или в лесу, тo скoрoсть ветра занижена на 2-4 м/с пo сравнению с oткрытым местoм. Скoрoсть ветра над акватoриями крупных рек и oзёр, а также на вершинах хoлмoв на 2-5 м/с выше, чем в oбычных услoвиях.
Атмoсфернoе давление в разных тoчках местнoсти мoжет значительнo oтличаться oт давления на метеoстанции, в зависимoсти oт услoвий рельефа (при пoдъёме на 10 м давление пoнижается примернo на 1 мм рт.ст.).